Showing default

FENGYUN 4A, 41882

Orbit data source: Space-Track

FENGYUN 4A, 41882 is a payload satellite owned by CNMSC (CN) in GEO that was launched on Sat, 10 Dec 2016 UTC via a CHANG ZHENG 3B launch vehicle from the Xichang Space Center, China (XSC). Payload-class satellites include a variety of spacecraft equipped with specific instruments for various scientific and technological missions. These include communications satellites like Starlink; space stations such as the ISS; scientific satellites like the Hubble; Earth observation satellites from companies like Planet Labs, Umbra, and HawkEye 360; GPS; miniature CubeSats for education and research; and military/defense satellites.

Not visible in the next 10 days
Identifier
41882, 2016-077A
Orbit
GEO
Country
Flag of CNCN / PRC
Related business
Manufacturer
SISE
Mission
Operational Civil Weather
Bus & Motor
FY-4, LAE?
Mass
5,380 kg wet, ~3,000 kg dry
Launch date (UTC)
2016-12-10 (10 years ago)
Launch vehicle
CHANG ZHENG 3B
Launch site
Xichang Space Center, China (XSC)
Object type
Payload
Rocket body
Debris
Shape & HBR
Box + 1 Pan, 5.0 m
Radar Cross Section
24.437 m², Large (>1 m²)

Expand to show TLE details & history
Last TLE update: 21 hours ago

TLE from 21 hours ago
0 FENGYUN 4A
1 41882U 16077A   26172.55715684 -.00000359  00000-0  00000+0 0  9990
2 41882   2.3350  80.2401 0008569 153.4835   0.2982  1.00266450 34978
Epoch: 2026-06-21T13:22Z
TLE epoch observation values (Epoch: 2026-06-21T13:22:18.350Z)
Latitude
1.0173°
Longitude
123.72234°
Altitude
35,751.278 km
Speed
3.077 km/s
True Right ascension
15h 36m 13s
True Declination
1° 00' 59"
Sunlit
Object was in daylight at epoch
Visualization orbit readout
Latitude
Unknown
Longitude
Unknown
Altitude
Unknown
Speed
Unknown
Apparent Right ascension
Unknown
Apparent Declination
Unknown
Sunlit
N/A
Visualization observer readout
Local Sidereal Time
21:37:16
Azimuth
Unknown
Elevation
Unknown
Doppler factor
Unknown
Orbital elements
Apogee altitude
35,825.292 km
Perigee altitude
35,753.025 km
Semi-major axis
42,167.295 km
Eccentricity
0.00086
Inclination
2.335°
RAAN
80.2401°
Arg. of periapsis
153.4835°
True anomaly
0.29871°
Mean anomaly
0.2982°
Eccentric anomaly
0.29846°
Mean motion
0.25066 °/min
Orbital period
1,436.23 mins
BSTAR
0
Loading maneuver chart data...
Computing Atmospheric mass density...
Loading historical data...
Loading historical data...
Loading historical data...
Loading historical data...
Loading historical data...
Loading historical data...
Loading historical data...
Other satellites on launch #77 in the year 2016 (2016-12-10 UTC)

Documentation

Showing up to 5 results
|